AKDT,Max TemperatureF,Mean TemperatureF,Min TemperatureF,Max Dew PointF,MeanDew PointF,Min DewpointF,Max Humidity, Mean Humidity, Min Humidity, Max Sea Level PressureIn, Mean Sea Level PressureIn, Min Sea Level PressureIn, Max VisibilityMiles, Mean VisibilityMiles, Min VisibilityMiles, Max Wind SpeedMPH, Mean Wind SpeedMPH, Max Gust SpeedMPH,PrecipitationIn, CloudCover, Events, WindDirDegrees
2013-3-1,14,7,0,9,4,-3,87,78,67,30.04,29.82,29.54,10,5,1,6,1,,0.08,7,Snow,122
2013-3-2,17,4,-10,7,-4,-16,92,77,59,30.20,30.12,30.06,10,10,8,4,1,,T,3,Snow,106
2013-3-3,15,-1,-17,5,-9,-21,83,73,54,30.46,30.35,30.21,10,10,10,5,1,,0.00,2,,183
2013-3-4,21,2,-17,8,-7,-22,87,72,46,30.52,30.44,30.31,10,10,10,4,0,,0.00,2,,40
2013-3-5,30,14,-3,11,1,-6,88,73,36,30.30,30.12,29.96,10,10,10,5,0,,0.00,4,,40
2013-3-6,15,4,-8,2,-4,-10,87,74,44,29.98,29.94,29.89,10,10,10,7,1,,0.00,2,,122
2013-3-7,36,16,-5,20,7,-8,83,66,41,29.88,29.60,29.43,10,10,10,9,5,,0.00,5,,40
2013-3-8,42,28,14,22,16,8,84,68,37,29.65,29.55,29.50,10,10,10,7,3,,0.00,5,,28
2013-3-9,34,25,15,25,16,10,85,70,49,30.03,29.86,29.66,10,10,6,7,2,,0.00,5,Snow,288
2013-3-10,29,15,0,23,11,-4,96,80,49,30.36,30.15,30.05,10,5,0,12,4,,T,6,Fog-Snow,201
2013-3-11,23,8,-7,11,2,-9,88,75,49,30.62,30.53,30.36,10,10,10,6,2,,T,3,Snow,186
2013-3-12,23,6,-12,3,-7,-17,87,66,28,30.62,30.54,30.39,10,10,10,9,3,,0.00,0,,53
2013-3-13,16,-2,-21,-3,-14,-24,87,59,26,30.38,30.32,30.28,10,10,10,30,7,37,0.00,1,,43
2013-3-14,19,5,-9,-5,-14,-21,59,44,21,30.29,30.21,30.19,10,10,10,117,17,23,0.00,2,,36
2013-3-15,24,4,-16,-6,-13,-24,68,46,12,30.21,30.07,29.97,10,10,10,16,9,,0.00,1,,51
2013-3-16,25,7,-12,-1,-9,-19,72,54,19,30.22,30.12,30.05,10,10,10,10,7,,0.00,0,,54
2013-3-17,16,0,-16,-2,-9,-18,79,64,31,30.35,30.28,30.19,10,10,9,6,1,,0.00,2,Snow,144
2013-3-18,17,2,-13,-2,-8,-16,82,60,31,30.19,30.09,30.04,10,10,10,9,1,,0.00,3,,149
2013-3-19,16,0,-16,-3,-10,-19,78,57,27,30.19,30.13,30.09,10,10,10,9,4,,0.00,2,,54
2013-3-20,12,-3,-18,-3,-11,-22,82,64,40,30.09,30.03,29.96,10,10,7,9,2,,T,5,Snow,189
2013-3-21,20,8,-5,7,0,-8,83,73,42,30.14,30.09,30.04,10,5,1,7,2,,0.05,7,Snow,22
2013-3-22,32,20,7,14,5,0,73,55,27,30.05,29.85,29.70,10,10,10,12,4,,0.00,7,,52
2013-3-23,19,2,-16,13,-7,-19,76,59,24,30.11,29.99,29.72,10,7,2,14,9,22,0.02,5,Snow,234
2013-3-24,8,-5,-19,2,-9,-24,80,70,37,30.08,29.91,29.77,10,7,1,8,4,,0.07,6,Snow,185
2013-3-25,10,6,2,2,-1,-6,84,72,49,29.81,29.72,29.63,10,6,2,14,3,,0.04,8,Snow,223
2013-3-26,5,-9,-23,-6,-12,-26,85,59,26,30.26,30.06,29.84,10,9,1,14,6,23,T,5,Snow,229
2013-3-27,11,-9,-30,-11,-19,-34,83,62,25,30.32,30.27,30.17,10,10,10,6,1,,0.00,3,,40
2013-3-28,31,4,-24,8,-8,-27,78,59,14,30.16,30.04,29.92,10,10,10,6,2,,0.00,3,,31
2013-3-29,45,24,2,18,7,-4,76,52,16,29.92,29.89,29.86,10,10,10,8,3,,0.00,5,,35
2013-3-30,37,19,0,18,8,-3,84,57,27,30.21,30.12,29.94,10,10,10,6,1,,0.00,5,,184
2013-3-31,39,28,16,26,19,10,81,64,45,30.27,30.22,30.16,10,10,10,6,2,,0.00,7,,84